When you browse on this site, cookies collect data to enhance your experience and personalize the content and advertising you see.
Visit our Privacy Policy to learn more. By continuing to use the site, you agree to this use of cookies and data.
  • In Romania
  • List of Countries
  • For 7 days
  • Water Temperature
  • Satellite Maps
  • Weather Map
  • Weather Widgets
  • user-avatar
    Login

    Hourly Weather Bucharest

    Today, 19 May, Sunday

    Time Temperature Precipitation Wind Pressure Humidity
    00:00 +18°C° 0 mm 2 mps 749 mmHg 69%
    01:00 +18°C° 0 mm 2 mps 749 mmHg 71%
    02:00 +16°C° 0 mm 0 mps 749 mmHg 79%
    03:00 +15°C° 0 mm 0 mps 749 mmHg 80%
    04:00 +15°C° 0 mm 0 mps 749 mmHg 81%
    05:00 +15°C° 0 mm 0 mps 749 mmHg 82%
    06:00 +17°C° 0 mm 0 mps 749 mmHg 77%
    07:00 +18°C° 0 mm 0 mps 750 mmHg 72%
    08:00 +20°C° 0 mm 0 mps 750 mmHg 67%
    09:00 +24°C° 0 mm 1 mps 750 mmHg 62%
    10:00 +25°C° 0 mm 1 mps 750 mmHg 56%
    11:00 +27°C° 0 mm 1 mps 749 mmHg 51%
    12:00 +28°C° 0 mm 1 mps 749 mmHg 48%
    13:00 +29°C° 0 mm 2 mps 749 mmHg 44%
    14:00 +30°C° 0 mm 2 mps 749 mmHg 41%
    15:00 +30°C° 0 mm 2 mps 749 mmHg 42%
    16:00 +30°C° 0 mm 3 mps 749 mmHg 43%
    17:00 +30°C° 0 mm 3 mps 748 mmHg 45%
    18:00 +28°C° 0 mm 3 mps 748 mmHg 50%
    19:00 +26°C° 0 mm 3 mps 748 mmHg 56%
    20:00 +24°C° 0 mm 3 mps 748 mmHg 61%
    21:00 +24°C° 0 mm 3 mps 748 mmHg 66%
    22:00 +22°C° 0 mm 4 mps 748 mmHg 71%
    23:00 +21°C° 0 mm 4 mps 748 mmHg 76%

    Tomorrow, 20 May, Monday

    Time Temperature Precipitation Wind Pressure Humidity
    00:00 +20°C° 0 mm 4 mps 748 mmHg 75%
    01:00 +19°C° 0 mm 3 mps 748 mmHg 75%
    02:00 +19°C° 0 mm 3 mps 748 mmHg 74%
    03:00 +18°C° 0 mm 3 mps 748 mmHg 71%
    04:00 +17°C° 0 mm 3 mps 748 mmHg 67%
    05:00 +17°C° 0 mm 3 mps 748 mmHg 64%
    06:00 +18°C° 0 mm 2 mps 748 mmHg 61%
    07:00 +20°C° 0 mm 2 mps 749 mmHg 58%
    08:00 +21°C° 0 mm 2 mps 749 mmHg 54%
    09:00 +23°C° 0 mm 2 mps 749 mmHg 52%
    10:00 +25°C° 0 mm 2 mps 749 mmHg 49%
    11:00 +26°C° 0 mm 2 mps 749 mmHg 47%
    12:00 +27°C° 0 mm 2 mps 749 mmHg 46%
    13:00 +28°C° 0 mm 2 mps 749 mmHg 45%
    14:00 +29°C° 0 mm 2 mps 749 mmHg 44%
    15:00 +29°C° 0 mm 3 mps 748 mmHg 46%
    16:00 +29°C° 0 mm 3 mps 748 mmHg 47%
    17:00 +29°C° 0 mm 3 mps 748 mmHg 48%
    18:00 +27°C° 0 mm 3 mps 748 mmHg 52%
    19:00 +26°C° 0 mm 2 mps 748 mmHg 56%
    20:00 +24°C° 0 mm 2 mps 748 mmHg 60%
    21:00 +22°C° 0.9 mm 3 mps 749 mmHg 68%
    22:00 +20°C° 0.9 mm 3 mps 749 mmHg 76%
    23:00 +19°C° 0.9 mm 4 mps 749 mmHg 84%

    Day after tomorrow, 21 May, Tuesday

    Time Temperature Precipitation Wind Pressure Humidity
    00:00 +19°C° 0.5 mm 4 mps 749 mmHg 85%
    01:00 +18°C° 0.5 mm 4 mps 749 mmHg 85%
    02:00 +17°C° 0.5 mm 3 mps 750 mmHg 86%
    03:00 +17°C° 0 mm 3 mps 750 mmHg 86%
    04:00 +16°C° 0 mm 3 mps 750 mmHg 86%
    05:00 +16°C° 0 mm 3 mps 750 mmHg 85%
    06:00 +17°C° 0 mm 3 mps 750 mmHg 80%
    07:00 +19°C° 0 mm 4 mps 751 mmHg 75%
    08:00 +20°C° 0 mm 4 mps 751 mmHg 70%
    09:00 +21°C° 0 mm 4 mps 751 mmHg 63%
    10:00 +23°C° 0 mm 4 mps 751 mmHg 56%
    11:00 +25°C° 0 mm 4 mps 751 mmHg 50%
    12:00 +25°C° 0 mm 4 mps 751 mmHg 47%
    13:00 +26°C° 0 mm 4 mps 751 mmHg 45%
    14:00 +27°C° 0 mm 4 mps 750 mmHg 42%
    15:00 +26°C° 0 mm 4 mps 750 mmHg 44%
    16:00 +26°C° 0 mm 3 mps 750 mmHg 45%
    17:00 +26°C° 0 mm 3 mps 750 mmHg 47%
    18:00 +24°C° 0 mm 3 mps 750 mmHg 51%
    19:00 +21°C° 0 mm 3 mps 750 mmHg 56%
    20:00 +20°C° 0 mm 3 mps 751 mmHg 60%
    21:00 +19°C° 0 mm 3 mps 751 mmHg 61%
    22:00 +18°C° 0 mm 3 mps 751 mmHg 62%
    23:00 +17°C° 0 mm 3 mps 751 mmHg 63%

    22 May, Wednesday

    Time Temperature Precipitation Wind Pressure Humidity
    00:00 +17°C° 0 mm 3 mps 751 mmHg 65%
    01:00 +16°C° 0 mm 3 mps 751 mmHg 68%
    02:00 +16°C° 0 mm 3 mps 752 mmHg 70%
    03:00 +14°C° 0 mm 3 mps 752 mmHg 72%
    04:00 +14°C° 0 mm 3 mps 752 mmHg 75%
    05:00 +13°C° 0 mm 3 mps 752 mmHg 77%
    06:00 +15°C° 0 mm 4 mps 752 mmHg 73%
    07:00 +17°C° 0 mm 4 mps 752 mmHg 70%
    08:00 +19°C° 0 mm 5 mps 752 mmHg 67%
    09:00 +20°C° 0 mm 5 mps 752 mmHg 62%
    10:00 +22°C° 0 mm 6 mps 752 mmHg 56%
    11:00 +23°C° 0 mm 6 mps 753 mmHg 51%
    12:00 +24°C° 0 mm 7 mps 752 mmHg 50%
    13:00 +24°C° 0 mm 7 mps 752 mmHg 49%
    14:00 +26°C° 0 mm 7 mps 752 mmHg 48%
    15:00 +24°C° 0 mm 7 mps 752 mmHg 49%
    16:00 +24°C° 0 mm 6 mps 752 mmHg 50%
    17:00 +24°C° 0 mm 6 mps 751 mmHg 52%
    18:00 +23°C° 0 mm 5 mps 752 mmHg 56%
    19:00 +21°C° 0 mm 5 mps 752 mmHg 61%
    20:00 +20°C° 0 mm 4 mps 752 mmHg 65%
    21:00 +19°C° 0 mm 4 mps 752 mmHg 67%
    22:00 +19°C° 0 mm 4 mps 752 mmHg 69%
    23:00 +18°C° 0 mm 4 mps 753 mmHg 71%

    23 May, Thursday

    Time Temperature Precipitation Wind Pressure Humidity
    00:00 +17°C° 0 mm 3 mps 753 mmHg 74%
    01:00 +17°C° 0 mm 3 mps 752 mmHg 77%
    02:00 +16°C° 0 mm 3 mps 752 mmHg 80%
    03:00 +16°C° 0 mm 3 mps 752 mmHg 82%
    04:00 +14°C° 0 mm 3 mps 752 mmHg 83%
    05:00 +15°C° 0 mm 2 mps 752 mmHg 85%
    06:00 +16°C° 0 mm 2 mps 752 mmHg 80%
    07:00 +18°C° 0 mm 2 mps 752 mmHg 75%
    08:00 +19°C° 0 mm 2 mps 752 mmHg 71%
    09:00 +21°C° 0 mm 3 mps 752 mmHg 65%
    10:00 +22°C° 0 mm 3 mps 752 mmHg 59%
    11:00 +25°C° 0 mm 3 mps 752 mmHg 54%
    12:00 +26°C° 0 mm 3 mps 751 mmHg 51%
    13:00 +27°C° 0 mm 4 mps 751 mmHg 48%
    14:00 +27°C° 0 mm 4 mps 751 mmHg 45%
    15:00 +27°C° 0 mm 4 mps 750 mmHg 46%
    16:00 +27°C° 0 mm 4 mps 750 mmHg 48%
    17:00 +27°C° 0 mm 3 mps 750 mmHg 49%
    18:00 +25°C° 0 mm 3 mps 750 mmHg 55%
    19:00 +24°C° 0 mm 3 mps 750 mmHg 61%
    20:00 +21°C° 0 mm 3 mps 750 mmHg 68%
    21:00 +20°C° 0.2 mm 2 mps 750 mmHg 71%
    22:00 +19°C° 0.2 mm 2 mps 750 mmHg 75%
    23:00 +19°C° 0.2 mm 2 mps 750 mmHg 78%

    24 May, Friday

    Time Temperature Precipitation Wind Pressure Humidity
    00:00 +18°C° 0.6 mm 2 mps 750 mmHg 81%
    01:00 +18°C° 0.6 mm 1 mps 750 mmHg 84%
    02:00 +18°C° 0.6 mm 1 mps 750 mmHg 87%
    03:00 +17°C° 0.3 mm 2 mps 750 mmHg 87%
    04:00 +17°C° 0.3 mm 3 mps 750 mmHg 88%
    05:00 +16°C° 0.3 mm 3 mps 750 mmHg 89%
    06:00 +17°C° 0.2 mm 4 mps 750 mmHg 85%
    07:00 +16°C° 0.2 mm 5 mps 750 mmHg 82%
    08:00 +16°C° 0.2 mm 5 mps 750 mmHg 79%
    09:00 +17°C° 0.5 mm 5 mps 750 mmHg 78%
    10:00 +18°C° 0.5 mm 4 mps 750 mmHg 77%
    11:00 +18°C° 0.5 mm 4 mps 750 mmHg 77%
    12:00 +18°C° 1 mm 3 mps 750 mmHg 78%
    13:00 +18°C° 1 mm 3 mps 749 mmHg 80%
    14:00 +18°C° 1 mm 2 mps 749 mmHg 82%
    15:00 +18°C° 0.4 mm 2 mps 749 mmHg 81%
    16:00 +19°C° 0.4 mm 3 mps 749 mmHg 81%
    17:00 +19°C° 0.4 mm 3 mps 748 mmHg 80%
    18:00 +18°C° 0.1 mm 3 mps 748 mmHg 83%
    19:00 +18°C° 0.1 mm 2 mps 748 mmHg 85%
    20:00 +17°C° 0.1 mm 2 mps 748 mmHg 88%
    21:00 +17°C° 0.3 mm 2 mps 749 mmHg 88%
    22:00 +17°C° 0.3 mm 2 mps 749 mmHg 88%
    23:00 +17°C° 0.3 mm 2 mps 749 mmHg 89%
    Show more